When you browse on this site, cookies collect data to enhance your experience and personalize the content and advertising you see.
Visit our Privacy Policy to learn more. By continuing to use the site, you agree to this use of cookies and data.
  • Em Portugal
  • Lista de países
  • Para 7 dias
  • Temperatura da água
  • Mapa do tempo
  • Widgets de tempo
  • user-avatar
    Iniciar Sessão

    Previsão horária em Mendoza

    Hoje, 25 Maio, Segunda-feira

    Tempo Temperatura Precipitação Vento Pressão Humidade
    00:00 +17°C° 0 mm 3 m/s 701 mmHg 22%
    01:00 +17°C° 0 mm 3 m/s 702 mmHg 23%
    02:00 +16°C° 0 mm 2 m/s 701 mmHg 28%
    03:00 +15°C° 0 mm 2 m/s 701 mmHg 34%
    04:00 +15°C° 0 mm 1 m/s 701 mmHg 39%
    05:00 +15°C° 0 mm 1 m/s 701 mmHg 41%
    06:00 +14°C° 0 mm 2 m/s 702 mmHg 43%
    07:00 +14°C° 0 mm 2 m/s 703 mmHg 42%
    08:00 +16°C° 0 mm 2 m/s 703 mmHg 37%
    09:00 +17°C° 0 mm 2 m/s 703 mmHg 32%
    10:00 +19°C° 0 mm 1 m/s 703 mmHg 26%
    11:00 +19°C° 0 mm 2 m/s 703 mmHg 24%
    12:00 +20°C° 0 mm 2 m/s 703 mmHg 22%
    13:00 +21°C° 0 mm 3 m/s 702 mmHg 20%
    14:00 +21°C° 0 mm 3 m/s 702 mmHg 20%
    15:00 +21°C° 0 mm 3 m/s 702 mmHg 21%
    16:00 +21°C° 0 mm 3 m/s 701 mmHg 21%
    17:00 +19°C° 0 mm 2 m/s 701 mmHg 22%
    18:00 +17°C° 0 mm 2 m/s 701 mmHg 23%
    19:00 +16°C° 0 mm 2 m/s 701 mmHg 24%
    20:00 +15°C° 0 mm 1 m/s 701 mmHg 24%
    21:00 +15°C° 0 mm 1 m/s 701 mmHg 24%
    22:00 +14°C° 0 mm 1 m/s 700 mmHg 25%
    23:00 +14°C° 0 mm 1 m/s 700 mmHg 25%

    Amanhã, 26 Maio, Terça-feira

    Tempo Temperatura Precipitação Vento Pressão Humidade
    00:00 +12°C° 0 mm 0 m/s 700 mmHg 25%
    01:00 +12°C° 0 mm 0 m/s 699 mmHg 25%
    02:00 +12°C° 0 mm 0 m/s 699 mmHg 25%
    03:00 +12°C° 0 mm 1 m/s 698 mmHg 25%
    04:00 +12°C° 0 mm 1 m/s 698 mmHg 25%
    05:00 +12°C° 0 mm 1 m/s 698 mmHg 25%
    06:00 +13°C° 0 mm 1 m/s 698 mmHg 26%
    07:00 +13°C° 0 mm 1 m/s 698 mmHg 26%
    08:00 +16°C° 0 mm 1 m/s 698 mmHg 23%
    09:00 +19°C° 0 mm 1 m/s 698 mmHg 20%
    10:00 +22°C° 0 mm 1 m/s 699 mmHg 17%
    11:00 +23°C° 0 mm 2 m/s 698 mmHg 16%
    12:00 +24°C° 0 mm 2 m/s 698 mmHg 16%
    13:00 +25°C° 0 mm 2 m/s 697 mmHg 16%
    14:00 +24°C° 0 mm 2 m/s 697 mmHg 18%
    15:00 +24°C° 0 mm 1 m/s 696 mmHg 20%
    16:00 +23°C° 0 mm 1 m/s 696 mmHg 22%
    17:00 +21°C° 0 mm 1 m/s 696 mmHg 24%
    18:00 +20°C° 0 mm 1 m/s 696 mmHg 27%
    19:00 +18°C° 0 mm 1 m/s 696 mmHg 29%
    20:00 +16°C° 0 mm 1 m/s 696 mmHg 32%
    21:00 +16°C° 0 mm 1 m/s 696 mmHg 36%
    22:00 +15°C° 0 mm 1 m/s 696 mmHg 39%
    23:00 +15°C° 0 mm 1 m/s 696 mmHg 40%

    Depois de amanhã, 27 Maio, Quarta-feira

    Tempo Temperatura Precipitação Vento Pressão Humidade
    00:00 +14°C° 0 mm 1 m/s 695 mmHg 40%
    01:00 +14°C° 0 mm 1 m/s 695 mmHg 41%
    02:00 +13°C° 0 mm 1 m/s 695 mmHg 41%
    03:00 +13°C° 0 mm 1 m/s 695 mmHg 41%
    04:00 +13°C° 0 mm 1 m/s 695 mmHg 42%
    05:00 +13°C° 0 mm 1 m/s 695 mmHg 42%
    06:00 +13°C° 0 mm 1 m/s 695 mmHg 41%
    07:00 +13°C° 0 mm 1 m/s 695 mmHg 41%
    08:00 +15°C° 0 mm 1 m/s 696 mmHg 36%
    09:00 +19°C° 0 mm 1 m/s 696 mmHg 30%
    10:00 +21°C° 0 mm 2 m/s 697 mmHg 25%
    11:00 +21°C° 0 mm 2 m/s 696 mmHg 24%
    12:00 +23°C° 0 mm 2 m/s 696 mmHg 23%
    13:00 +24°C° 0 mm 2 m/s 695 mmHg 22%
    14:00 +24°C° 0 mm 2 m/s 695 mmHg 24%
    15:00 +23°C° 0 mm 2 m/s 695 mmHg 25%
    16:00 +23°C° 0 mm 2 m/s 695 mmHg 27%
    17:00 +20°C° 0 mm 2 m/s 695 mmHg 30%
    18:00 +18°C° 0 mm 2 m/s 695 mmHg 34%
    19:00 +17°C° 0 mm 2 m/s 694 mmHg 38%
    20:00 +16°C° 0 mm 2 m/s 694 mmHg 39%
    21:00 +16°C° 0 mm 2 m/s 694 mmHg 40%
    22:00 +15°C° 0 mm 2 m/s 694 mmHg 40%
    23:00 +15°C° 0 mm 2 m/s 694 mmHg 42%

    28 Maio, Quinta-feira

    Tempo Temperatura Precipitação Vento Pressão Humidade
    00:00 +14°C° 0 mm 2 m/s 694 mmHg 43%
    01:00 +14°C° 0 mm 1 m/s 693 mmHg 44%
    02:00 +14°C° 0 mm 2 m/s 693 mmHg 45%
    03:00 +13°C° 0 mm 2 m/s 693 mmHg 45%
    04:00 +13°C° 0 mm 2 m/s 693 mmHg 46%
    05:00 +13°C° 0 mm 2 m/s 693 mmHg 47%
    06:00 +13°C° 0 mm 2 m/s 693 mmHg 47%
    07:00 +13°C° 0 mm 1 m/s 693 mmHg 48%
    08:00 +15°C° 0 mm 1 m/s 694 mmHg 43%
    09:00 +18°C° 0 mm 1 m/s 694 mmHg 39%
    10:00 +20°C° 0 mm 1 m/s 694 mmHg 34%
    11:00 +20°C° 0 mm 1 m/s 694 mmHg 33%
    12:00 +21°C° 0 mm 1 m/s 693 mmHg 32%
    13:00 +22°C° 0 mm 1 m/s 693 mmHg 31%
    14:00 +22°C° 0 mm 1 m/s 693 mmHg 32%
    15:00 +21°C° 0 mm 1 m/s 693 mmHg 33%
    16:00 +21°C° 0 mm 1 m/s 693 mmHg 34%
    17:00 +20°C° 0 mm 1 m/s 693 mmHg 39%
    18:00 +18°C° 0 mm 1 m/s 693 mmHg 43%
    19:00 +16°C° 0 mm 1 m/s 693 mmHg 48%
    20:00 +15°C° 0 mm 2 m/s 694 mmHg 49%
    21:00 +15°C° 0 mm 2 m/s 694 mmHg 50%
    22:00 +15°C° 0 mm 2 m/s 694 mmHg 51%
    23:00 +13°C° 0 mm 3 m/s 695 mmHg 54%

    29 Maio, Sexta-feira

    Tempo Temperatura Precipitação Vento Pressão Humidade
    00:00 +12°C° 0 mm 3 m/s 695 mmHg 58%
    01:00 +12°C° 0 mm 3 m/s 695 mmHg 61%
    02:00 +11°C° 0 mm 3 m/s 695 mmHg 64%
    03:00 +10°C° 0 mm 3 m/s 695 mmHg 67%
    04:00 +9°C° 0 mm 3 m/s 695 mmHg 70%
    05:00 +9°C° 0 mm 3 m/s 695 mmHg 68%
    06:00 +9°C° 0 mm 3 m/s 696 mmHg 65%
    07:00 +9°C° 0 mm 3 m/s 697 mmHg 63%
    08:00 +9°C° 0 mm 3 m/s 697 mmHg 56%
    09:00 +9°C° 0 mm 3 m/s 697 mmHg 50%
    10:00 +9°C° 0 mm 3 m/s 698 mmHg 44%
    11:00 +9°C° 0 mm 3 m/s 697 mmHg 40%
    12:00 +9°C° 0 mm 3 m/s 697 mmHg 36%
    13:00 +10°C° 0 mm 4 m/s 697 mmHg 33%
    14:00 +10°C° 0 mm 3 m/s 697 mmHg 32%
    15:00 +9°C° 0 mm 3 m/s 697 mmHg 31%
    16:00 +9°C° 0 mm 3 m/s 698 mmHg 30%
    17:00 +8°C° 0 mm 2 m/s 698 mmHg 29%
    18:00 +7°C° 0 mm 2 m/s 699 mmHg 28%
    19:00 +6°C° 0 mm 2 m/s 699 mmHg 27%
    20:00 +6°C° 0 mm 2 m/s 699 mmHg 27%
    21:00 +7°C° 0 mm 1 m/s 700 mmHg 27%
    22:00 +6°C° 0 mm 1 m/s 700 mmHg 27%
    23:00 +6°C° 0 mm 1 m/s 700 mmHg 28%

    30 Maio, Sábado

    Tempo Temperatura Precipitação Vento Pressão Humidade
    00:00 +6°C° 0 mm 1 m/s 700 mmHg 28%
    01:00 +5°C° 0 mm 1 m/s 700 mmHg 29%
    02:00 +5°C° 0 mm 1 m/s 700 mmHg 29%
    03:00 +5°C° 0 mm 1 m/s 700 mmHg 30%
    04:00 +4°C° 0 mm 1 m/s 699 mmHg 30%
    05:00 +4°C° 0 mm 1 m/s 700 mmHg 31%
    06:00 +4°C° 0 mm 1 m/s 700 mmHg 32%
    07:00 +4°C° 0 mm 1 m/s 700 mmHg 33%
    08:00 +6°C° 0 mm 1 m/s 700 mmHg 29%
    09:00 +8°C° 0 mm 1 m/s 700 mmHg 25%
    10:00 +10°C° 0 mm 1 m/s 701 mmHg 22%
    11:00 +10°C° 0 mm 2 m/s 700 mmHg 21%
    12:00 +12°C° 0 mm 2 m/s 700 mmHg 21%
    13:00 +12°C° 0 mm 2 m/s 699 mmHg 21%
    14:00 +12°C° 0 mm 2 m/s 699 mmHg 21%
    15:00 +12°C° 0 mm 2 m/s 699 mmHg 22%
    16:00 +12°C° 0 mm 2 m/s 699 mmHg 23%
    17:00 +10°C° 0 mm 2 m/s 699 mmHg 26%
    18:00 +10°C° 0 mm 1 m/s 700 mmHg 29%
    19:00 +9°C° 0 mm 1 m/s 700 mmHg 32%
    20:00 +8°C° 0 mm 1 m/s 700 mmHg 33%
    21:00 +8°C° 0 mm 1 m/s 700 mmHg 33%
    22:00 +8°C° 0 mm 1 m/s 700 mmHg 34%
    23:00 +7°C° 0 mm 1 m/s 701 mmHg 35%
    Mostrar mais